Regional Weather Roundup
Issued by NWS Wakefield, VA

Home | Current Version | Previous Version | Text Only | Print | Product List | Glossary Off
Versions: 1 2 3 4 5 6 7 8 9 10 11 12 13 14 15 16 17 18 19 20 21 22 23 24 25 26 27

000
ASUS41 KAKQ 241215
RWRAKQ

REGIONAL WEATHER ROUNDUP
NATIONAL WEATHER SERVICE WAKEFIELD VA
800 AM EDT WED MAY 24 2017

Note: "fair" indicates few or no clouds below 12,000 feet with no
significant weather and/or obstructions to visibility. * = Denotes
station may not report precipitation (e.g., rain,snow,etc.),
thunder or fog.

VAZ042-051-052>054-056-241300-
NORTHERN VIRGINIA

CITY           SKY/WX    TMP DP  RH WIND       PRES   REMARKS
WASH NATIONAL  LGT RAIN  59  55  87 CALM      29.75R
DULLES         CLOUDY    58  54  86 E5        29.74S
FORT BELVOIR   CLOUDY    57  55  94 CALM      29.73F
QUANTICO       CLOUDY    59  58  96 N7        29.74F FOG
FREDERICKSBRG* CLOUDY    58  58 100 N3        29.73S
STAFFORD*      CLOUDY    56  56 100 CALM      29.77F
WARRENTON      LGT RAIN  59  55  88 NE5       29.73F
CULPEPER*      CLOUDY    58  57  97 CALM      29.75F
MANASSAS*      LGT RAIN  57  55  94 NE6       29.74F
LEESBURG*      CLOUDY    59  59 100 E3        29.75F FOG
WINCHESTER     DRZL/FOG  55  54  94 CALM      29.73F VSB 1
FRONT ROYAL*   CLOUDY    55  55 100 CALM      29.73R
LURAY*         CLOUDY    57  57 100 CALM      29.73R FOG
$$

VAZ048-049-060>072-079>083-241300-
CENTRAL AND SOUTH CENTRAL VIRGINIA

CITY           SKY/WX    TMP DP  RH WIND       PRES   REMARKS
RICHMOND       CLOUDY    59  58  96 NE8       29.71R
CHESTERFIELD*  NOT AVBL
PETERSBURG*    CLOUDY    58  57  97 CALM      29.72R
HANOVER        CLOUDY    59  56  89 VRB5      29.73R
TAPPAHANNOCK*  CLOUDY    59  59 100 N3        29.72S FOG
QUINTON*       CLOUDY    58  58 100 NE3       29.70S FOG
CHARLOTTSVILLE CLOUDY    59  56  89 NE5       29.72S FOG
GORDONSVILLE*  CLOUDY    57  56  99 NE3       29.72S
ORANGE*        CLOUDY    55  54  94 CALM      29.74R
LOUISA*        CLOUDY    61  59  94 NE5       29.72R
BUMPASS*       CLOUDY    57  57 100 CALM      29.72S
FARMVILLE*     CLOUDY    59  56  89 NE6       29.71S
CREWE*         CLOUDY    58  54  86 NE6       29.71S
FORT PICKETT*  CLOUDY   N/A N/A N/A NE7       29.71S
CHASE CITY*    CLOUDY    58  56  94 NE5       29.70R
CLARKSVILLE*   CLOUDY    59  59 100 NE6       29.69S
SOUTH HILL*    CLOUDY    58  58 100 N5        29.75R
LAWRENCEVILLE* CLOUDY    59  58  97 NE5       29.70R
EMPORIA*       CLOUDY    59  59 100 CALM      29.71R
$$

VAZ088>098-241300-
SOUTHEAST VIRGINIA

CITY           SKY/WX    TMP DP  RH WIND       PRES   REMARKS
NORFOLK        CLOUDY    60  58  92 NE13      29.70R
VIRGINIA BEACH CLOUDY    59  57  93 NE10      29.69R
NORFOLK NAVAL  CLOUDY    62  59  90 NE12      29.70R FOG
WEST POINT*    CLOUDY    59  58  97 N3        29.72S
SALUDA*        CLOUDY    58  58 100 NE5       29.70S
NEWPORT NEWS   CLOUDY    60  59  96 NE7       29.70R FOG
LANGLEY AFB    NOT AVBL
FORT EUSTIS    CLOUDY    60  59  94 NE3       29.68R FOG
WILLIAMSBURG*  CLOUDY    61  61 100 CALM      29.71S
HR EXEC AP*    CLOUDY    63  59  88 E7        29.68R
FRANKLIN*      CLOUDY    61  60  96 NE5       29.70R FOG
US460-WAKEFLD  CLOUDY    60  59  96 CALM      29.70R
$$

VAZ020-022-025-037-045-241300-
WEST CENTRAL AND SOUTHWEST VIRGINIA

CITY           SKY/WX    TMP DP  RH WIND       PRES   REMARKS
STAUNTON*      CLOUDY    56  54  91 CALM      29.74S
WAYNESBORO*    CLOUDY    55  55 100 CALM      29.73S
HOT SPRINGS VA RAIN      43  41  93 E9        29.74R VSB<1/4
LYNCHBURG      CLOUDY    57  55  93 NE8       29.73R FOG
DANVILLE       CLOUDY    59  59 100 NE8       29.70R FOG
SOUTH BOSTON*  CLOUDY    59  58  95 NE6       29.70S
MARTINSVILLE   CLOUDY    58  58  97 CALM      29.70F FOG
ROANOKE        DRIZZLE   58  58 100 E8        29.73R FOG
BLACKSBURG     DRIZZLE   56  55  96 E7        29.72F
DUBLIN*        CLOUDY    57  55  91 E6        29.70F FOG
MARION*        FOG       57  55  91 NE8       29.70S VSB 1
HILLSVILLE*    CLOUDY    56  52  86 CALM      29.68F FOG
RICHLANDS*     FAIR      59  57  93 SE6       29.65S
WISE*          CLOUDY    59  59 100 CALM      29.64S
ABINGDON*      CLOUDY    61  61  99 E6        29.64F
$$

MDZ021>025-VAZ099-100-241300-
SOUTHERN MARYLAND AND THE DELMARVA PENINSULA

CITY           SKY/WX    TMP DP  RH WIND       PRES   REMARKS
PATUXENT RIVER CLOUDY    60  59  96 N5        29.72R
BAY BRIDGE APT CLOUDY    57  54  88 N3        29.74R
LEONARDTOWN    CLOUDY    57  55  94 CALM      29.75R
DOVER          CLOUDY    59  59 100 NE8       29.70R
GEORGETOWN     LGT RAIN  60  57  89 NE9       29.70S FOG
EASTON         CLOUDY    57  55  94 N5        29.76R
CAMBRIDGE      PTSUNNY   57  57 100 NE5       29.71R
SALISBURY      CLOUDY    59  58  96 NE6       29.70R FOG
OCEAN CITY     CLOUDY    59  57  93 NE9G18    29.70R FOG
WALLOPS ISLAND CLOUDY    59  58  96 NE14G22   29.69R
ACCOMACK*      DRIZZLE   59  47  65 N5        29.70R
$$

NCZ012>017-030>032-241300-
NORTH CENTRAL AND EASTERN NORTH CAROLINA

CITY           SKY/WX    TMP DP  RH WIND       PRES   REMARKS
ROANOKE RAPIDS CLOUDY    61  61 100 CALM      29.69R
RALEIGH        CLOUDY    66  64  93 VRB3      29.68S
ELIZABETH CITY CLOUDY    63  63 100 N9        29.68R
AHOSKIE*       LGT RAIN  61  61  99 CALM      29.70R
EDENTON*       CLOUDY    65  64  94 CALM      29.69R FOG
CURRITUCK*     CLOUDY    62  62 100 N6        29.69R
KILL DEVIL HLS CLOUDY    63  63 100 CALM      29.66R
MANTEO         CLOUDY    67  67  97 N5        29.67R
CAPE HATTERAS  CLOUDY    72  68  87 W8        29.68
TARBORO*       NOT AVBL
GOLDSBORO      PTSUNNY   70  70 100 SW6       29.66R
WASHINGTON     CLOUDY    67  66  97 W5        29.68R
GREENVILLE     CLOUDY    64  64 100 NE6       29.71R FOG
NEW BERN       CLOUDY    69  68  96 W6        29.68F
WILMINGTON     CLOUDY    70  68  93 W7        29.68S
$$

VAZ048-241300-
ELSEWHERE

CITY           SKY/WX    TMP DP  RH WIND       PRES   REMARKS
HARRISBURG PA  CLOUDY    59  56  89 NW8       29.76R FOG
BALTIMORE      PTSUNNY   59  54  83 CALM      29.74R
ANNAPOLIS      CLOUDY    61  56  83 CALM      29.75R
ANDREWS AFB    PTSUNNY   56  54  93 N5        29.74S
PHILADELPHIA   LGT RAIN  60  53  77 E9        29.73R
HENDERSON NC   CLOUDY    58  57  97 NE7       29.69R FOG
GREENSBORO     CLOUDY    61  61 100 NE6       29.67S
ROCKY MOUNT    CLOUDY    65  65 100 CALM      29.69R FOG
$$

VAZ100-241300-
MARINE

STATION/POSITION TIME  TEMP    WIND        PRES    WAVE   SWELL
                       AIR SEA DIR/SP/G            HT/PER HT/PER
                 (UTC) (F)     (DEG/KT/KT) (MB)    (FT/S) (FT/S)
CAPE MAY NJ      1148   58 60   50/  2/  4 1005.3R
LEWES DE         1148   58 62   60/ 11/ 12 1005.5R
15NM E FENWICK I 1150   57 56   10/ 14/ 16 1005.2R   4/ 5   2/ 8
WACHAPREAGUE VA  1148   60 63   40/ 15/ 18 1004.9R
THOMAS POINT MD  1200   59 65  360/  6/  7   N/A
GOOSES REEF MD   1150   59      50/  6/  8 1007.4R
COVE POINT MD    1148   59      30/  5/  8 1007.0R
SOLOMONS ISLAND  1142   60 67  340/  4/  5   N/A
BISHOPS HEAD MD  1148   59 64   10/  5/  8 1006.4R
PINEY POINT MD   1142           20/  4/  5   N/A
POTOMAC MD       1150   61      50/  8/ 10 1005.3R
CAMBRIDGE MD     1142   58 67                N/A
LEWISETTA VA     1148   60 65   60/  6/  9 1006.1R
RAPPAHANNOCK LGT 1148           30/ 16/ 17 1005.9F
STINGRAY PT      1150   60      60/ 16/ 19 1004.2F
YORK RVR RNG VA  1148   61      60/ 11/ 12 1004.9R
YORKTOWN VA      1148   61 68   40/  5/  8 1005.2R
JAMESTOWN VA     1150   60      20/  4/  6   N/A
DOMINION TERM VA 1148   61      40/  3/  5 1005.5R
KIPTOPEKE VA     1148      65   60/  8/ 14   N/A
CHES BAY BRIDGE  1148   61 66   50/ 14/ 18 1005.2R
CAPE HENRY VA    1148   60      30/ 14/ 17   N/A
WILLOUBY STN VA  1148   61      40/ 12/ 14 1005.4R
S CRANEY ISL VA  1148   62      70/  8/  9 1005.3R
CAPE HENRY BUOY  1142      61                N/A     5/ 5
1ST LANDING BUOY 1150   61                 1005.4R
CAPE CHARLES BUO 1151      62                N/A     4/ 5
64NM E OF VA BCH 1150   62 64  350/  8/  8 1004.5R   5/ 7   5/ 7
DUCK PIER NC     1148   62 63   20/  9/ 11 1004.3R
44100 DUCK FRF   1105      64                N/A     4/ 8
44056 DUCK FRF   1130      64                N/A     4/ 6
OREGON INLET NC  1142   69 71  270/  6/  8 1004.4R
HATTERAS NC      1148   72 73  270/ 12/ 15 1004.5R
DIAMOND SHLS NC  1150   74 74  260/ 14/ 16 1004.8R   6/ 7   3/ 7
CAPE LOOKOUT NC  1100   71     280/ 11/ 12 1004.6R
$$




USA.gov is the U.S. government's official web portal to all federal, state and local government web resources and services.